Kiripotib Landing Site

Jump to: basic info | weather | comments

Related pages: nearby airports | nearby navaids

Basic information (top)

Location: lon -23.328300, lat 17.946400, elev 4,475 ft / 1,364 m msl
Status: small_airport

Weather (top)

Current conditions for Hosea Kutako International Airport 57nm (106km) NNW (rec'd 2014/10/22 12:00Z):

FYWH 221200Z 32004KT 9999 SCT050 30/M05 Q1023 NOSIG

Airport forecast for Hosea Kutako International Airport 57nm (106km) NNW (rec'd 2014/10/22 06:42Z):

TAF FYWH 220400Z 2206/2312 23008KT CAVOK 
      BECMG 2209/2211 34015KT 
      BECMG 2217/2219 25005KT

Latest comments (top)

More details: Once can also land in the nearby salt ... [read]

Kiripotib Landing Strip Details: GPS location: S 23° 19' 50'' E 17° ... [read]

More... (top)

See also NOTAMs and nearby airports and navaids, or visit the Kiripotib Landing Site page at the main OurAirports website..